CZ-6A DEB, 54395

Orbit data source: Space-Track

CZ-6A DEB, 54395 is space debris in SSO originally from a launch on Fri, 11 Nov 2022 UTC launched from the Taiyaun Space Center, China (TSC). Debris objects in space refer to the collection of defunct objects orbiting the Earth. Examples of debris include non-operational satellites, rocket bodies, and fragments generated from explosions, collisions, or faulty payload assembly.

Loading next visibility...
Identifier
54395, 2022-151DT
Orbit
SSO
Country
Flag of CNCN / PRC
Related business
Manufacturer
SAST
Mission
Spacecraft
Bus & Motor
Unknown
Mass
Unknown
Launch date (UTC)
2022-11-11 (4 years ago)
Launch vehicle
Unknown
Launch site
Taiyaun Space Center, China (TSC)
Object type
Payload
Rocket body
Debris
Shape & HBR
Unknown shape, 0.1 m
Radar Cross Section
Medium (>0.1 m² and <1 m²)

Expand to show TLE details & history
Last TLE update: 2 days ago

TLE from 2 days ago
0 CZ-6A DEB
1 54395U 22151DT  26171.34217391  .00002148  00000-0  47505-3 0  9993
2 54395  98.4638 201.5820 0118354 281.5143  77.2783 14.54093050190027
Epoch: 2026-06-20T08:12Z
TLE epoch observation values (Epoch: 2026-06-20T08:12:43.825Z)
Latitude
-0.00009°
Longitude
169.84124°
Altitude
697.746 km
Speed
7.516 km/s
True Right ascension
13h 26m 19s
True Declination
0° 00' 00"
Sunlit
Object was in daylight at epoch
Visualization orbit readout
Latitude
Unknown
Longitude
Unknown
Altitude
Unknown
Speed
Unknown
Apparent Right ascension
Unknown
Apparent Declination
Unknown
Sunlit
N/A
Visualization observer readout
Local Sidereal Time
21:32:15
Azimuth
Unknown
Elevation
Unknown
Doppler factor
Unknown
Orbital elements
Apogee altitude
793.296 km
Perigee altitude
625.528 km
Semi-major axis
7,087.549 km
Eccentricity
0.01184
Inclination
98.4638°
RAAN
201.582°
Arg. of periapsis
281.5143°
True anomaly
78.60545°
Mean anomaly
77.2783°
Eccentric anomaly
77.94146°
Mean motion
3.63747 °/min
Orbital period
98.97 mins
BSTAR
0.00047505
Loading maneuver chart data...
Computing Atmospheric mass density...
Loading historical data...
Loading historical data...
Loading historical data...
Loading historical data...
Loading historical data...
Loading historical data...
Loading historical data...

Documentation

Showing up to 5 results
|